[[{"header":{"parameterUnit":"m.s-1","parameterCategory":1,"la1":30.2991,"la2":30.254,"lo1":-89.0895,"lo2":-89.0444,"dy":0.0017,"dx":0.0017,"nx":28,"ny":28,"refTime":"2025-08-10T03:00:00:Z","depth":0,"parameterNumber":2,"parameterNumberName":"U-component_of_WINDS"},"data":[0,0,0,0,0,0,0,0,0,0,0,0,0,0,0,0,0,0,0,0,0,0,0,0,0,0,0,0,0,0,0,0,0,0,0,0,0,0,0,0,0,0,0,0,0,0,0,0,0,0,0,0,0,0,0,0,0,0,-4.206,-4.206,0,-4.2049,-4.2049,-4.2049,-4.1981,-4.1979,-4.1978,-4.1976,-4.1965,-4.1966,-4.1967,0,0,0,0,0,0,0,0,0,0,0,0,0,-4.2024,-4.2025,-4.206,-4.206,-4.206,-4.2049,-4.2049,-4.2049,-4.1981,-4.1979,-4.1977,-4.1975,-4.1964,-4.1966,-4.1967,0,0,0,0,0,0,0,0,0,0,0,0,0,-4.2029,-4.2025,-4.206,-4.2025,-4.2021,-4.2049,-4.2049,-4.2049,-4.1982,-4.1979,-4.1977,-4.1974,-4.1964,-4.1966,-4.1967,-4.2028,0,0,-4.1973,-4.1974,0,0,0,0,0,0,0,0,-4.2029,-4.203,-4.203,-4.2027,-4.2024,-4.2014,-4.2032,-4.2042,-4.1982,-4.1997,-4.1976,-4.1973,-4.1983,-4.1983,-4.1986,-4.2027,-4.2027,-4.1973,-4.1974,-4.1975,-4.1976,0,0,0,0,0,0,0,-4.2028,-4.203,-4.2056,-4.203,-4.2026,-4.201,-4.2008,-4.2033,-4.2004,-4.1995,-4.199,-4.199,-4.1981,-4.1985,-4.1986,-4.2027,-4.1973,-4.1975,-4.1976,-4.1977,-4.2117,-4.2119,0,0,0,0,0,0,-4.2033,-4.203,-4.2056,-4.2055,-4.202,-4.2013,-4.201,-4.2019,-4.2003,-4.1998,-4.1992,-4.1987,-4.1983,-4.1984,-4.1985,-4.2054,-4.1975,-4.1977,-4.1978,-4.2114,-4.2118,-4.212,0,0,0,0,0,0,-4.2032,-4.2036,-4.2056,-4.2042,-4.2043,-4.2016,-4.2027,-4.2021,-4.2024,-4.2001,-4.1995,-4.2002,-4.1981,-4.1982,-4.2018,-4.2052,-4.1978,-4.1979,-4.2111,-4.2115,-4.2119,-4.2193,0,0,0,0,0,0,-4.2032,-4.2036,-4.2058,-4.2043,-4.2044,-4.2089,-4.2029,-4.2022,-4.2028,-4.2021,-4.2008,-4.2004,-4.1979,-4.2015,-4.202,-4.2054,-4.1981,-4.2108,-4.2113,-4.2118,-4.2187,-4.2199,-4.2209,0,0,0,0,0,-4.2031,-4.2079,-4.206,-4.2063,-4.2071,-4.2091,-4.2092,-4.2062,-4.2031,-4.2053,-4.2038,-4.2004,-4.2049,-4.202,-4.2024,-4.2059,-4.2106,-4.2112,-4.2117,-4.2182,-4.2196,-4.2208,0,0,0,0,0,0,-4.2098,-4.2076,-4.2054,-4.2099,-4.2098,-4.208,-4.2106,-4.2079,-4.2086,-4.2079,-4.2042,-4.204,-4.2081,-4.2074,-4.2042,-4.2117,-4.2071,-4.2079,-4.2119,-4.2133,-4.2143,-4.2143,-4.1982,0,0,0,0,0,-4.2119,-4.2137,-4.2117,-4.2158,-4.2159,-4.2133,-4.2141,-4.2119,-4.2116,-4.2114,-4.2102,-4.21,-4.2114,-4.2123,-4.2135,-4.2187,-4.2183,-4.2214,-4.2224,-4.2233,-4.2239,-4.2266,-4.2279,-4.214,-4.214,-4.214,0,0,-4.2161,-4.2151,-4.2164,-4.2172,-4.2168,-4.2188,-4.2133,-4.2156,-4.217,-4.2118,-4.2149,-4.2142,-4.2137,-4.2181,-4.22,-4.2177,-4.2277,-4.2241,-4.2248,-4.2249,-4.2273,-4.2286,-4.2298,-4.2144,-4.2143,-4.2143,0,0,-4.2246,-4.2241,-4.2275,-4.2273,-4.2268,-4.2251,-4.226,-4.2247,-4.2239,-4.2271,-4.2233,-4.225,-4.2274,-4.2273,-4.2275,-4.2364,-4.2333,-4.2369,-4.2424,-4.2451,-4.2462,-4.2471,-4.2502,-4.2513,-4.2375,-4.2376,-4.2376,0,-4.2298,-4.2326,-4.2296,-4.2322,-4.2326,-4.2282,-4.2316,-4.2315,-4.2315,-4.2319,-4.2294,-4.2324,-4.2318,-4.2361,-4.2383,-4.2387,-4.2395,-4.2368,-4.2463,-4.2472,-4.2481,-4.2509,-4.252,-4.238,-4.2379,-4.2379,-4.2379,0,-4.239,-4.241,-4.2438,-4.2439,-4.2447,-4.2477,-4.2452,-4.2465,-4.2443,-4.2429,-4.2463,-4.2455,-4.2464,-4.2474,-4.2452,-4.2514,-4.2499,-4.2469,-4.2422,-4.2499,-4.2524,-4.2535,-4.2386,-4.2384,-4.2383,-4.2382,0,0,-4.2513,-4.25,-4.251,-4.251,-4.2504,-4.2519,-4.2548,-4.2557,-4.2568,-4.257,-4.2593,-4.2616,-4.2589,-4.2592,-4.2571,-4.2595,-4.2664,-4.2561,-4.2561,-4.2579,-4.273,-4.2751,-4.2764,-4.2645,-4.2647,-4.2649,-4.273,0,-4.2593,-4.2641,-4.2616,-4.2667,-4.2685,-4.2645,-4.2671,-4.267,-4.2659,-4.2673,-4.2661,-4.2677,-4.264,-4.2642,-4.2664,-4.2651,-4.2694,-4.2645,-4.2664,-4.2665,-4.2663,-4.2778,-4.2799,-4.2876,-4.274,-4.2742,-4.2743,0,-4.2692,-4.2699,-4.2752,-4.2743,-4.275,-4.2773,-4.278,-4.2794,-4.2793,-4.2783,-4.2789,-4.2763,-4.2791,-4.2747,-4.2785,-4.2753,-4.276,-4.2755,-4.2758,-4.2756,-4.2706,-4.2776,-4.29,-4.2911,-4.2759,-4.2758,-4.2757,0,-4.2774,-4.2798,-4.2832,-4.2834,-4.2825,-4.2842,-4.2839,-4.2836,-4.2843,-4.285,-4.2855,-4.2865,-4.287,-4.2879,-4.2857,-4.2828,-4.2898,-4.2852,-4.2889,-4.289,-4.2903,-4.2902,-4.3027,-4.2913,-4.2913,-4.2912,-4.2912,0,-4.2865,-4.2898,-4.2869,-4.289,-4.2927,-4.29,-4.2937,-4.293,-4.2928,-4.2946,-4.2914,-4.2932,-4.2903,-4.2919,-4.2903,-4.2936,-4.2939,-4.2932,-4.2926,-4.2933,-4.2933,-4.2934,-4.2927,-4.2915,-4.2915,-4.2914,-4.2914,0,-4.2961,-4.2943,-4.2978,-4.2968,-4.2966,-4.2994,-4.2985,-4.3004,-4.2992,-4.3017,-4.3021,-4.3002,-4.3019,-4.2999,-4.3015,-4.3004,-4.3048,-4.3036,-4.3048,-4.3044,-4.3081,-4.3077,-4.3208,-4.3224,-4.3103,-4.3104,-4.3105,0,-4.3018,-4.3043,-4.3036,-4.3047,-4.3046,-4.3064,-4.3072,-4.3048,-4.3057,-4.3059,-4.3078,-4.3093,-4.3103,-4.3133,-4.312,-4.3132,-4.3119,-4.3164,-4.312,-4.3126,-4.3117,-4.3114,-4.3116,-4.3172,-4.3173,-4.3175,-4.3176,0,-4.312,-4.3111,-4.3124,-4.3135,-4.3146,-4.3153,-4.3158,-4.3169,-4.3144,-4.3157,-4.3174,-4.3182,-4.3199,-4.3214,-4.3223,-4.322,-4.3193,-4.3191,-4.3199,-4.3204,-4.3209,-4.3205,-4.307,-4.3186,-4.3185,-4.3185,-4.3184,-4.3184,-4.3197,-4.3217,-4.3216,-4.3232,-4.3234,-4.324,-4.3257,-4.3249,-4.3263,-4.3274,-4.326,-4.3282,-4.3282,-4.3291,-4.3292,-4.3308,-4.3289,-4.3302,-4.3305,-4.3307,-4.3312,-4.321,-4.331,-4.331,-4.331,-4.3309,-4.3309,0,-4.3296,-4.3294,-4.3309,-4.3318,-4.3331,-4.3307,-4.3312,-4.3324,-4.3344,-4.3346,-4.3357,-4.3378,-4.3393,-4.3383,-4.3396,-4.3411,-4.34,-4.3415,-4.3412,-4.3412,-4.333,-4.332,-4.3424,-4.3424,-4.3424,-4.3424,-4.3424,-4.3424,-4.3349,-4.3382,-4.3373,-4.3407,-4.3405,-4.3426,-4.3431,-4.3436,-4.3438,-4.3463,-4.3475,-4.3469,-4.3467,-4.348,-4.3492,-4.3489,-4.3494,-4.3514,-4.3506,-4.3429,-4.3418,-4.3407,-4.3397,-4.3516,-4.3516,-4.3586,-4.3587,-4.3587]},{"header":{"parameterUnit":"m.s-1","parameterCategory":1,"la1":30.2991,"la2":30.254,"lo1":-89.0895,"lo2":-89.0444,"dy":0.0017,"dx":0.0017,"nx":28,"ny":28,"refTime":"2025-08-10T03:00:00:Z","depth":0,"parameterNumber":3,"parameterNumberName":"V-component_of_WINDS"},"data":[0,0,0,0,0,0,0,0,0,0,0,0,0,0,0,0,0,0,0,0,0,0,0,0,0,0,0,0,0,0,0,0,0,0,0,0,0,0,0,0,0,0,0,0,0,0,0,0,0,0,0,0,0,0,0,0,0,0,2.6312,2.6312,0,2.6259,2.6259,2.6258,2.6282,2.6283,2.6285,2.6286,2.6226,2.6224,2.6221,0,0,0,0,0,0,0,0,0,0,0,0,0,2.6432,2.6429,2.6312,2.6312,2.6311,2.6259,2.6259,2.6258,2.6282,2.6283,2.6285,2.6286,2.6227,2.6224,2.6221,0,0,0,0,0,0,0,0,0,0,0,0,0,2.6379,2.6428,2.6312,2.6317,2.6317,2.6259,2.6259,2.6258,2.6281,2.6283,2.6285,2.6287,2.6228,2.6224,2.622,2.6154,0,0,2.6207,2.6205,0,0,0,0,0,0,0,0,2.6382,2.6375,2.6317,2.6316,2.6316,2.6279,2.6279,2.6223,2.6281,2.6295,2.6286,2.6288,2.6242,2.6237,2.6222,2.6151,2.6149,2.6207,2.6204,2.6202,2.6201,0,0,0,0,0,0,0,2.6386,2.6377,2.6291,2.6316,2.6315,2.6321,2.6315,2.6268,2.6257,2.6294,2.6295,2.6289,2.6242,2.6226,2.6221,2.6148,2.6207,2.6203,2.6201,2.6199,2.6022,2.6019,0,0,0,0,0,0,2.639,2.638,2.6293,2.629,2.6355,2.6317,2.6311,2.6289,2.6258,2.6256,2.6287,2.629,2.6233,2.6226,2.6219,2.614,2.6202,2.6198,2.6196,2.6024,2.6021,2.6019,0,0,0,0,0,0,2.6392,2.6382,2.6295,2.6335,2.6325,2.6313,2.6288,2.6287,2.6271,2.6254,2.6251,2.6273,2.6234,2.6225,2.6171,2.6138,2.6197,2.6193,2.6026,2.6023,2.602,2.5981,0,0,0,0,0,0,2.6395,2.6382,2.6357,2.6335,2.6322,2.6248,2.6286,2.6284,2.6264,2.6268,2.624,2.6237,2.6235,2.6177,2.6167,2.6134,2.6189,2.6029,2.6025,2.6021,2.5985,2.5977,2.597,0,0,0,0,0,2.64,2.6347,2.6356,2.6345,2.6291,2.6246,2.6239,2.6239,2.6262,2.6236,2.6225,2.6238,2.6144,2.6171,2.616,2.6125,2.6031,2.6026,2.6021,2.5989,2.5979,2.597,0,0,0,0,0,0,2.6364,2.6344,2.6354,2.6293,2.6271,2.625,2.6218,2.6228,2.6198,2.6203,2.6203,2.6196,2.614,2.6128,2.6158,2.606,2.6091,2.6084,2.607,2.6061,2.6053,2.6056,2.6186,0,0,0,0,0,2.635,2.6316,2.63,2.6247,2.6237,2.6229,2.621,2.6212,2.6189,2.6179,2.6165,2.6141,2.6106,2.6083,2.605,2.5985,2.5979,2.5956,2.5948,2.5942,2.5935,2.59,2.5889,2.6003,2.6003,2.6003,0,0,2.6318,2.6303,2.6281,2.624,2.6224,2.6188,2.6221,2.6181,2.6155,2.6173,2.6121,2.611,2.6083,2.6024,2.5996,2.6011,2.5903,2.5936,2.5931,2.5927,2.5894,2.5883,2.5874,2.5999,2.6,2.6001,0,0,2.6242,2.6228,2.6183,2.6167,2.6143,2.614,2.6129,2.6107,2.6101,2.605,2.6063,2.6032,2.5972,2.5953,2.5935,2.5857,2.5867,2.5846,2.5805,2.5772,2.5763,2.5755,2.5726,2.5716,2.584,2.5839,2.5839,0,2.6205,2.6153,2.6158,2.6119,2.61,2.6118,2.6073,2.6057,2.6022,2.6009,2.6027,2.5954,2.5937,2.5874,2.5855,2.584,2.5828,2.5848,2.5764,2.5756,2.5749,2.5721,2.5711,2.5837,2.5837,2.5838,2.5838,0,2.611,2.6074,2.604,2.6009,2.5988,2.5945,2.5943,2.592,2.5926,2.592,2.5868,2.585,2.5814,2.58,2.5803,2.5737,2.5747,2.5765,2.5795,2.5735,2.571,2.5699,2.5834,2.5834,2.5835,2.5836,0,0,2.6006,2.5982,2.5969,2.5956,2.5933,2.5905,2.5864,2.5831,2.5812,2.5788,2.5753,2.5705,2.5721,2.5701,2.5704,2.5675,2.5614,2.5695,2.5695,2.568,2.554,2.5526,2.5514,2.5622,2.562,2.5618,2.5542,0,2.5928,2.5858,2.5863,2.5795,2.5763,2.5781,2.5746,2.5727,2.5722,2.5692,2.5686,2.5651,2.5676,2.5664,2.5636,2.5627,2.5585,2.5633,2.5588,2.5586,2.5592,2.5501,2.5485,2.5413,2.5532,2.553,2.5529,0,2.5827,2.5803,2.5733,2.5717,2.5704,2.5671,2.5643,2.5615,2.5595,2.5594,2.5574,2.5582,2.554,2.5574,2.5516,2.5548,2.5531,2.5524,2.5521,2.5515,2.5552,2.5491,2.5391,2.5379,2.5514,2.5515,2.5516,0,2.5758,2.5708,2.5661,2.5649,2.5629,2.5606,2.5597,2.5579,2.556,2.5535,2.5523,2.5493,2.5476,2.5453,2.5453,2.5477,2.5394,2.5428,2.5391,2.539,2.537,2.5371,2.5264,2.5361,2.5362,2.5362,2.5362,0,2.5669,2.5625,2.563,2.56,2.5552,2.5559,2.5511,2.5504,2.5489,2.5458,2.5472,2.5443,2.5445,2.5415,2.5415,2.5367,2.536,2.5356,2.5356,2.5354,2.5354,2.5341,2.5345,2.5359,2.536,2.536,2.5361,0,2.5582,2.5583,2.5533,2.552,2.5516,2.5481,2.5469,2.5441,2.5439,2.5399,2.539,2.5385,2.5351,2.535,2.531,2.531,2.5252,2.5258,2.5259,2.5259,2.5222,2.5225,2.5101,2.5085,2.5194,2.5193,2.5192,0,2.5525,2.5492,2.5477,2.5458,2.5448,2.5417,2.5399,2.5405,2.5385,2.5362,2.5337,2.5305,2.5279,2.5224,2.5216,2.5186,2.5191,2.515,2.5186,2.5185,2.5189,2.519,2.5187,2.5141,2.514,2.5139,2.5139,0,2.5422,2.5426,2.5399,2.5374,2.5352,2.5332,2.5313,2.5297,2.5301,2.5278,2.5245,2.5225,2.5186,2.5154,2.5126,2.5115,2.5127,2.5128,2.5118,2.5114,2.5115,2.5113,2.5238,2.513,2.5131,2.5131,2.5132,2.5132,2.5348,2.532,2.5306,2.5277,2.5264,2.5247,2.5221,2.5216,2.5189,2.5159,2.5165,2.5127,2.511,2.5074,2.5061,2.5032,2.5046,2.5031,2.5026,2.5022,2.5018,2.5122,2.5027,2.5027,2.5027,2.5027,2.5027,0,2.5245,2.5238,2.5212,2.5186,2.5164,2.5181,2.5162,2.5141,2.5109,2.5093,2.5068,2.5031,2.5,2.4992,2.4962,2.4941,2.4945,2.4932,2.4933,2.4931,2.5007,2.5019,2.4929,2.4929,2.4929,2.4929,2.4929,2.4929,2.5189,2.5144,2.5146,2.5095,2.5088,2.5053,2.5041,2.5025,2.5013,2.4971,2.4947,2.4942,2.4929,2.49,2.4873,2.4871,2.4859,2.4843,2.4844,2.4915,2.4925,2.4934,2.4945,2.4841,2.4841,2.4769,2.4769,2.4768]}]]